Location: Sternwarte ZA, Rosenfeld-Brittheim
(48.2889°N, 8.6789°E)
Time: 06:04:59
(UTC+01:00)

ISS - Pass Details

Date: 27 November 2020
Orbit: 418 x 421 km, 51.6° (Epoch: 26 November)

Event Time Altitude Azimuth Distance (km) Brightness Sun altitude
Rises 17:21:16 0° 248° (WSW) 2,357 2.7 -7.6°
Reaches altitude 10° 17:23:22 10° 249° (WSW) 1,496 0.8 -7.9°
Maximum altitude 17:26:43 86° 338° (NNW) 424 -3.8 -8.4°
Enters shadow 17:29:44 13° 68° (ENE) 1,355 -1.9 -8.9°
